Regional Weather Roundup
Issued by NWS

Home | Current Version | Previous Version | Graphics & Text | Print | Product List | Glossary On
Versions: 1 2 3 4 5 6 7 8 9 10 11 12 13 14 15 16 17 18 19 20 21 22 23 24 25 26 27 28 29 30 31 32 33 34 35 36 37 38 39 40 41 42 43 44 45 46 47 48 49 50
000
ASUS43 KMPX 281310
RWRMN
WEATHER ROUNDUP FOR MINNESOTA
NATIONAL WEATHER SERVICE TWIN CITIES/CHANHASSEN MN
800 AM CDT THU MAY 28 2015


NOTE: "FAIR" INDICATES FEW OR NO CLOUDS BELOW 12,000 FEET WITH NO
SIGNIFICANT WEATHER AND/OR OBSTRUCTIONS TO VISIBILITY. N/A MEANS
CURRENT SKY AND/OR WEATHER CONDITIONS ARE NOT AVAILABLE.

MNZ060>063-068>070-281400-
   Twin Cities Metro

CITY           SKY/WX    TMP DP  RH WIND       PRES   REMARKS
TWIN CITIES    PTSUNNY   70  55  59 S6        30.06S
ST PAUL        SUNNY     66  59  78 SE6       30.07S
CRYSTAL        SUNNY     69  56  62 S6        30.04S
BLAINE         PTSUNNY   70  57  64 S7        30.05S
LAKEVILLE      SUNNY     64  57  77 S6        30.07S
EDEN PRAIRIE   SUNNY     67  56  67 S6        30.05S
SOUTH ST PAUL  SUNNY     66  57  73 CALM      30.07S
LAKE ELMO      FAIR      68  59  73 S8        30.08S
$$
MNZ001>005-007-008-013>017-022>024-027-028-281400-
   Northwest Minnesota

CITY           SKY/WX    TMP DP  RH WIND       PRES   REMARKS
BEMIDJI        CLOUDY    58  53  81 SE7       29.99R
HALLOCK        LGT RAIN  57  55  94 E7        29.93F
ROSEAU         LGT RAIN  54  48  82 NE3       29.99F
WARROAD        LGT RAIN  54  50  87 CALM      29.99F
THIEF RVR FALL CLOUDY    57  54  88 E7        29.98R
CROOKSTON      LGT RAIN  57  55  94 E7        29.94F
FOSSTON        RAIN      57  48  72 CALM      29.99R
DETROIT LAKES  LGT RAIN  63  57  82 CALM      29.99R
MOORHEAD       CLOUDY    61  57  88 E8        29.93F
PARK RAPIDS    CLOUDY    63  53  70 E5        29.98R
MAHNOMEN       RAIN      58  56  93 N3        29.97F
$$
MNZ006-009>011-018-025>026-281400-
   North Central Minnesota

CITY           SKY/WX    TMP DP  RH WIND       PRES   REMARKS
BAUDETTE       LGT RAIN  53  49  86 E3        30.00R
FLAG ISLAND    RAIN      55  54  94 S5        30.01R
INTL FALLS     CLOUDY    55  48  77 SE5       30.01F
WASKISH        LGT RAIN  57  52  82 CALM      30.00R
BIG FORK       PTSUNNY   57  46  67 SE5       30.02F
LONGVILLE      CLOUDY    55  50  82 CALM      30.01S
GRAND RAPIDS   CLOUDY    54  43  66 S9        30.06R
CRANE LAKE     PTSUNNY   54  46  76 CALM      30.07S
ORR            PTSUNNY   54  43  66 SE7       30.02F
COOK           PTSUNNY   55  45  67 SE8       30.05F
WALKER         FAIR      60  53  76 E3        29.99S
$$
MNZ012-019>021-037-281400-
   Northeast Minnesota

CITY           SKY/WX    TMP DP  RH WIND       PRES   REMARKS
DULUTH         MOSUNNY   48  41  76 E13       30.10F
HIBBING        PTSUNNY   56  46  69 SE14      30.06F
EVELETH        MOSUNNY   52  43  71 E5        30.09S
DULUTH HARBOR  MOSUNNY   45  41  87 NE22      30.15S
TWO HARBORS    SUNNY     52  45  76 E9        30.11F
SILVER BAY     MOSUNNY   48  41  76 NE10G17   30.13F
GRAND MARAIS     N/A     45  39  79 NE12G18   30.18R
G MARAIS ARPRT SUNNY     48  37  66 E6        30.16S
$$
MNZ029>031-032-039>041-046>048-054>057-064-281400-
   West Central Minnesota

CITY           SKY/WX    TMP DP  RH WIND       PRES   REMARKS
FERGUS FALLS   PTSUNNY   66  55  68 S3        29.97R
WHEATON        PTSUNNY   66  54  63 S8        29.96F
MORRIS         MOSUNNY   66  54  63 S10       29.97F
ALEXANDRIA     PTSUNNY   68  52  56 S8        30.01S
ELBOW LAKE     FAIR      66  53  63 S9        29.98R
WADENA         PTSUNNY   64  54  68 S5        29.99R
GLENWOOD       PTSUNNY   66  54  63 S9        30.02R
APPLETON       PTSUNNY   70  54  56 S7        29.98S
BENSON         PTSUNNY   66  54  63 SW5       30.00S
ORTONVILLE     PTSUNNY   66  54  63 S3        29.97S
MADISON        PTSUNNY   66  52  59 S12       29.99S
WILLMAR        FAIR      66  54  63 S3        30.04R
$$
MNZ033>034-036-042>043-049>051-058-059-281400-
   Central Minnesota

CITY           SKY/WX    TMP DP  RH WIND       PRES   REMARKS
ST CLOUD       MOSUNNY   65  57  75 S7        30.03S
SAUK CENTRE    FAIR      66  54  65 S9        30.02S
PAYNESVILLE    PTSUNNY   63  53  71 SE8       30.03S
AITKIN         CLOUDY    55  48  76 SE3       30.03R
PINE RIVER     CLOUDY    57  52  82 SE6       30.04S
BRAINERD       CLOUDY    60  52  74 SE9       30.03R
STAPLES        PTSUNNY   64  54  68 S5        30.00R
LONG PRAIRIE   HAZE      66  52  59 S8        30.02S VSB 1
LITTLE FALLS   PTSUNNY   64  52  63 SE3       30.02R
LITCHFIELD     MOSUNNY   66  57  72 CALM      30.04S
BUFFALO        MOSUNNY   66  55  66 S5        30.06S
MAPLE LAKE     MOSUNNY   67  59  75 S3        30.05S
$$
MNZ037-044-045-052-053-281400-
   East Central Minnesota

CITY           SKY/WX    TMP DP  RH WIND       PRES   REMARKS
PRINCETON      MOSUNNY   66  57  72 S3        30.04F
MORA           PTSUNNY   55  50  82 E3        30.07S
CAMBRIDGE      MOSUNNY   66  55  68 SE3       30.03S
RUSH CITY      MOSUNNY   59  55  88 CALM      30.06S
MOOSE LAKE     MOSUNNY   50  41  71 NE6       30.06S
HINCKLEY       FAIR      55  52  88 E6        30.07S
CLOQUET        MOSUNNY   46  39  76 E9        30.10S
MCGREGOR       CLOUDY    54  46  76 E8        30.05F
$$
MNZ071>073-080-081-089-090-097-098-281400-
   Southwest Minnesota

CITY           SKY/WX    TMP DP  RH WIND       PRES   REMARKS
MONTEVIDEO     PTSUNNY   66  55  68 SW8       30.02R
GRANITE FALLS  PTSUNNY   68  53  58 S10       30.04R
CANBY          CLOUDY    67  54  61 S6        30.01S
MARSHALL       PTSUNNY   68  50  52 SW12      30.02S
REDWOOD FALLS  MOSUNNY   66  54  65 S7        30.04R
OLIVIA         PTSUNNY   64  52  63 S8        30.03S
PIPESTONE      CLOUDY    66  54  63 S8        30.04F
WINDOM         MOSUNNY   68  54  60 CALM      30.07S
WORTHINGTON    PTSUNNY   66  50  55 S14       30.07S
JACKSON        MOSUNNY   64  54  68 S7        30.08F
TRACY          MOSUNNY   67  53  60 S10       30.04S
SLAYTON        MOSUNNY   67  51  57 S8        30.06S
$$
MNZ065>067-074>077-082>085-091>093-281400-
   South Central Minnesota

CITY           SKY/WX    TMP DP  RH WIND       PRES   REMARKS
MANKATO        SUNNY     64  55  72 S8        30.08S
NEW ULM        MOSUNNY   64  55  72 S8        30.06R
ST JAMES       SUNNY     66  57  72 S10       30.08S
FAIRMONT       MOSUNNY   64  52  63 S10       30.09S
GLENCOE        MOSUNNY   66  58  75 S5        30.06R
FARIBAULT      SUNNY     66  57  72 S7        30.10R
OWATONNA       SUNNY     68  54  60 S9        30.10R
WASECA         SUNNY     66  54  63 S9        30.11R
ALBERT LEA     MOSUNNY   66  55  68 S6        30.12R
$$
MNZ078>079-086>088-094>096-281400-
   Southeast Minnesota

CITY           SKY/WX    TMP DP  RH WIND       PRES   REMARKS
ROCHESTER      SUNNY     65  58  78 S14       30.13S
RED WING       SUNNY     68  57  68 SE5       30.08S
STANTON        SUNNY     68  57  68 S5        30.07S
DODGE CENTER   SUNNY     68  57  68 S9        30.12R
WINONA         SUNNY     66  63  88 SE5       30.12S
AUSTIN         SUNNY     64  57  77 S5        30.12S
PRESTON        SUNNY     65  56  73 SW8       30.15R
$$
ABBREVIATIONS USED IN REMARKS
   TC - TEMPERATURES IN CELSIUS
  WCI - WIND CHILL INDEX
   HX - HEAT INDEX
  VSB - VISIBILITY
$$



USA.gov is the U.S. government's official web portal to all federal, state and local government web resources and services.